DW9123 Weather Reports


Display with metric or nautical units.
time (UTC)temp
F
wind
direction
speed
MPH
gust
MPH
rain 1hr
in
rain 24hr
in
rain mn
in
humidity
%
barometer
mb
20260506123100 42 318 1.0 9.0 0.00 0.01 0.00 71 1011.7
20260506121556 43 5 3.0 12.0 0.00 0.01 0.00 72 1011.6
20260506120050 43 347 3.0 8.0 0.00 0.01 0.00 74 1011.2
20260506114546 43 327 1.0 5.0 0.00 0.01 0.00 73 1011.1
20260506113050 43 334 0.0 5.0 0.00 0.01 0.00 73 1010.9
20260506111539 43 306 0.0 7.0 0.00 0.01 0.00 71 1010.6
20260506110042 44 299 0.0 10.0 0.00 0.01 0.00 70 1010.3
20260506104533 44 315 3.0 9.0 0.00 0.01 0.00 68 1009.9
20260506103030 44 327 0.0 4.0 0.00 0.01 0.00 68 1009.9
20260506101532 44 329 1.0 7.0 0.00 0.01 0.00 68 1009.6
20260506100025 45 299 1.0 7.0 0.00 0.01 0.00 68 1009.3
20260506094526 45 333 0.0 5.0 0.00 0.01 0.00 69 1009.3
20260506093030 45 342 1.0 5.0 0.00 0.01 0.00 69 1009.5
20260506091519 45 332 0.0 8.0 0.00 0.01 0.00 69 1009.1
20260506090016 46 346 2.0 11.0 0.00 0.01 0.00 71 1009.1
20260506084512 47 360 1.0 8.0 0.00 0.01 0.00 73 1009.0
20260506083009 48 351 0.0 0.0 0.00 0.01 0.00 72 1008.9
20260506081512 48 333 1.0 8.0 0.00 0.01 0.00 70 1009.0
20260506073056 49 340 4.0 7.0 0.00 0.01 0.00 59 1008.5
20260506071553 50 337 0.0 5.0 0.00 0.01 0.00 59 1008.7
20260506061549 50 360 0.0 2.0 0.00 0.01 0.00 57 1008.6
20260506044548 51 248 0.0 2.0 0.00 0.01 0.00 57 1008.4
20260506043038 51 360 0.0 0.0 0.00 0.01 0.00 57 1008.2
20260506041539 51 267 0.0 0.0 0.00 0.01 0.00 57 1008.3
20260506040035 51 360 0.0 0.0 0.00 0.01 0.00 55 1008.5
20260506034536 51 213 0.0 0.0 0.00 0.01 0.01 54 1008.5
20260506033032 51 213 0.0 0.0 0.00 0.01 0.01 54 1008.5
20260506031542 52 207 0.0 0.0 0.00 0.01 0.01 53 1008.5
20260506030032 52 205 0.0 0.0 0.00 0.01 0.01 54 1008.5
20260506024532 52 194 0.0 0.0 0.00 0.01 0.01 52 1008.6
20260506023027 52 194 0.0 0.0 0.00 0.01 0.01 50 1008.6
20260506021624 52 233 0.0 7.0 0.00 0.01 0.01 53 1008.7
20260506020022 52 175 0.0 0.0 0.00 0.01 0.01 54 1008.2
20260506014520 53 196 0.0 0.0 0.00 0.01 0.01 61 1008.1
20260506013022 53 194 0.0 0.0 0.00 0.01 0.01 62 1007.9
20260506011519 53 194 0.0 0.0 0.00 0.01 0.01 58 1007.8
20260506010043 54 194 0.0 0.0 0.00 0.01 0.01 59 1007.9
20260506004514 54 194 0.0 0.0 0.00 0.01 0.01 60 1007.8
20260506003013 54 223 0.0 0.0 0.00 0.01 0.01 60 1007.8
20260506001510 55 200 0.0 1.0 0.00 0.01 0.01 63 1007.5
20260506000013 55 191 0.0 5.0 0.00 0.01 0.01 62 1007.3
20260505234507 55 220 0.0 0.0 0.00 0.01 0.01 61 1007.1
20260505233008 55 217 0.0 0.0 0.00 0.01 0.01 58 1007.0
20260505231509 55 360 1.0 5.0 0.00 0.01 0.01 59 1007.0
20260505230004 56 360 0.0 0.0 0.00 0.01 0.01 61 1007.1
20260505224503 56 228 0.0 5.0 0.00 0.01 0.01 63 1007.2
20260505223001 55 360 0.0 6.0 0.00 0.01 0.01 66 1007.2
20260505221557 55 206 0.0 0.0 0.00 0.01 0.01 74 1007.2
20260505220054 55 203 1.0 5.0 0.00 0.01 0.01 74 1007.5
20260505214609 55 205 0.0 6.0 0.00 0.01 0.01 76 1007.2
20260505213050 55 191 0.0 5.0 0.00 0.01 0.01 77 1007.1
20260505211550 54 199 0.0 6.0 0.00 0.01 0.01 77 1007.2
20260505210049 54 238 0.0 8.0 0.00 0.01 0.01 77 1007.3
20260505204547 54 163 0.0 5.0 0.00 0.01 0.01 78 1007.2
20260505203048 54 206 0.0 1.0 0.00 0.01 0.01 78 1007.2
20260505201553 54 360 0.0 10.0 0.00 0.01 0.01 79 1007.3
20260505200047 54 189 4.0 11.0 0.00 0.01 0.01 80 1007.5
20260505194545 53 200 0.0 7.0 0.00 0.01 0.01 81 1007.5
20260505193046 53 207 1.0 9.0 0.00 0.01 0.01 81 1007.6
20260505191600 53 169 1.0 7.0 0.00 0.01 0.01 81 1007.6
20260505190050 53 188 2.0 8.0 0.00 0.01 0.01 81 1007.4
20260505184545 54 167 0.0 8.0 0.00 0.01 0.01 81 1007.2
20260505183104 55 210 2.0 10.0 0.00 0.01 0.01 82 1006.9
20260505181539 54 231 0.0 7.0 0.00 0.01 0.01 81 1006.8
20260505180037 54 167 1.0 7.0 0.01 0.01 0.01 80 1006.7
20260505174537 55 163 0.0 10.0 0.01 0.01 0.01 80 1006.7
20260505173041 54 153 0.0 10.0 0.01 0.01 0.01 82 1006.3
20260505171542 53 360 0.0 6.0 0.01 0.01 0.01 85 1006.6
20260505170026 52 202 3.0 8.0 0.00 0.00 0.00 82 1006.7
20260505164523 0 0.0 0.0 0.00 0.00 0.00 1006.8
20260505163019 0 0.0 0.0 0.00 0.00 0.00 1006.8
20260505161515 0 0.0 0.0 0.00 0.00 0.00 1006.8
20260505153001 0 0.0 0.0 0.00 0.00 0.00 1006.1
20260505151500 0 0.0 0.0 0.00 0.00 0.00 1005.7
20260505124523 0 0.0 0.0 0.00 0.00 0.00 1003.8